Regional Weather Roundup
Issued by NWS

Home | Current Version | Previous Version | Text Only | Print | Product List | Glossary On
Versions: 1 2 3 4 5 6 7 8 9 10 11 12 13 14 15 16 17 18 19 20 21 22 23 24 25 26 27 28 29 30 31 32 33 34 35 36 37 38 39 40 41 42 43 44 45 46 47 48 49 50
000
ASUS43 KLMK 182102
RWRKY
KENTUCKY REGIONAL WEATHER ROUNDUP
NATIONAL WEATHER SERVICE LOUISVILLE KY
500 PM EDT WED APR 18 2018

NOTE "FAIR" INDICATES FEW OR NO CLOUDS BELOW 12,000 FEET
WITH NO SIGNIFICANT WEATHER AND/OR OBSTRUCTIONS TO VISIBILITY.

KYZ001>023-026-027-061>063-070>075-182200-
WESTERN AND SOUTH CENTRAL KENTUCKY

CITY           SKY/WX    TMP DP  RH WIND       PRES   REMARKS
PADUCAH        FAIR      81  42  25 W28G38    29.72R
HENDERSON      FAIR      78  60  53 SW18G25   29.66F
OWENSBORO      PTSUNNY   79  58  48 SW21G28   29.67R
HOPKINSVILLE   FAIR      78  55  43 SW25G32   29.73F
BOWLING GREEN  FAIR      76  58  53 SW18G33   29.74F
GLASGOW        NOT AVBL
$$

KYZ024-025-028>034-038-045-046-053-182200-
NORTH CENTRAL KENTUCKY

CITY           SKY/WX    TMP DP  RH WIND       PRES   REMARKS
LOUISVILLE/SDF PTSUNNY   78  55  44 SW16G25   29.64S
LOUISVILLE/LOU PTSUNNY   78  57  48 SW15G31   29.64F
FORT KNOX      PTSUNNY   77  56  48 SW17G29   29.67S
$$

KYZ035>037-039>044-047>052-055>060-089>105-182200-
NORTHEAST KENTUCKY

CITY           SKY/WX    TMP DP  RH WIND       PRES   REMARKS
LEXINGTON      FAIR      73  54  51 SW18G31   29.68F
COVINGTON      CLOUDY    71  51  49 SW8       29.64F
FRANKFORT      PTSUNNY   76  52  43 S20G29    29.65F
$$

KYZ054-064>069-076>088-106>120-182200-
SOUTHEAST KENTUCKY

CITY           SKY/WX    TMP DP  RH WIND       PRES   REMARKS
JACKSON        FAIR      79  48  33 S8G22     29.69S
LONDON         FAIR      79  51  37 SW15G24   29.72F
SOMERSET       NOT AVBL
MIDDLESBORO    FAIR      79  49  35 SW6G20    29.76S
MONTICELLO     FAIR      73  57  57 SW28G36   29.78S
$$





USA.gov is the U.S. government's official web portal to all federal, state and local government web resources and services.